Theta_e
303 299 298 297 298 298 296 295 295 299 301 298 299 299 302 304 303 304 308 309 310 311 314 317 319 321 323 325 327 329 330 337 343 358 348 350 351 355 353 353 355 354 354 352
300 297 299 299 298 297 296 295 296 299 300 299 299 299 302 301 304 306 306 307 308 309 311 313 316 318 319 322 326 329 330 332 337 354 353 352 351 355 354 354 358 358 354 354
296 298 299 297 296 295 297 296 296 295 298 301 298 297 298 302 304 306 307 308 308 308 308 311 313 315 318 319 322 326 329 332 333 354 352 351 351 350 352 354 354 355 354 352
297 299 297 297 295 296 294 298 297 296 295 292 299 290 297 300 301 304 306 307 307 308 309 309 311 313 315 318 321 324 327 330 331 353 348 346 345 345 347 353 353 353 356 353
296 296 296 295 295 297 295 299 297 297 295 295 294 291 296 300 298 302 304 305 306 307 307 307 308 312 312 316 316 319 324 331 334 353 350 346 345 348 352 350 352 354 357 356
297 301 298 297 298 299 299 299 300 297 295 290 294 291 294 300 299 300 302 304 305 306 307 308 309 311 311 312 315 316 320 324 327 348 348 347 345 345 347 350 347 348 350 353
295 297 299 299 297 300 299 297 293 290 290 290 294 292 295 300 302 300 301 304 306 307 307 307 306 307 309 307 311 313 316 318 317 319 346 345 346 346 351 356 350 351 348 348
291 290 296 299 297 295 295 296 292 282 287 290 296 290 297 302 303 303 304 305 305 305 306 306 307 307 307 306 308 311 313 315 314 314 319 347 354 348 349 353 353 350 348 349
292 291 298 298 299 298 296 295 297 289 292 287 293 296 300 302 302 302 303 303 303 303 304 305 306 307 307 307 307 310 312 314 314 312 314 322 348 346 349 346 349 348 355 348
296 290 296 298 299 300 297 300 289 291 284 284 291 292 294 298 300 301 302 302 302 303 303 303 305 306 307 308 308 311 311 313 314 314 313 315 321 348 344 345 345 348 354 352
298 294 295 297 296 295 296 293 293 293 291 285 285 292 301 299 300 300 301 301 301 301 301 302 303 305 306 307 307 309 310 311 314 314 314 315 317 323 345 335 336 344 353 352
299 297 292 293 299 300 298 296 295 288 285 289 287 288 302 302 301 301 301 301 301 301 301 302 303 303 304 305 306 307 309 309 313 315 315 317 317 320 330 337 330 339 349 351
300 295 289 292 296 298 295 296 295 294 292 288 284 290 303 303 302 303 301 300 301 301 300 299 301 300 301 303 304 306 307 308 311 313 315 318 318 317 319 333 343 346 349 350
301 296 292 288 292 296 293 295 295 292 287 290 290 293 299 301 300 302 301 301 300 299 298 298 299 299 300 300 301 303 306 307 309 311 313 317 317 317 320 329 338 348 349 350
300 292 295 296 296 296 295 294 295 292 293 287 293 294 298 300 300 301 300 300 299 297 298 298 297 298 298 300 301 302 303 306 308 309 311 315 320 320 321 325 340 349 348 350
302 293 295 293 295 295 293 295 296 296 296 295 294 294 300 302 303 301 298 298 297 296 296 297 297 297 298 298 299 300 302 305 307 308 310 313 318 320 321 325 332 343 349 350
299 296 292 288 294 294 290 295 296 296 297 296 292 298 301 300 299 298 297 296 296 296 298 296 296 297 297 298 299 299 301 303 307 307 308 312 315 318 321 325 330 333 346 350
298 296 292 288 292 284 296 299 298 296 297 299 299 299 301 300 301 299 300 297 296 296 298 297 297 297 297 298 298 300 301 303 304 308 309 311 313 317 320 323 329 334 338 347
300 298 290 288 288 291 294 297 295 292 292 299 298 300 300 300 298 299 300 301 299 298 300 299 298 297 297 297 298 299 300 301 302 306 309 310 310 317 320 322 327 329 336 341
299 300 292 290 283 282 294 298 301 299 289 300 299 300 298 297 289 296 302 301 299 301 301 299 298 297 296 297 298 298 299 300 301 304 309 311 313 316 316 319 321 326 332 336
290 291 287 287 285 290 299 301 301 288 294 301 302 302 299 295 298 300 302 299 303 301 300 298 297 296 296 297 298 297 299 298 301 304 309 310 313 314 319 322 324 327 330 332
291 289 287 288 284 283 302 299 292 301 304 304 304 303 300 299 299 299 298 301 301 300 298 297 295 295 296 297 297 296 297 299 300 303 307 310 312 314 319 320 322 325 328 333
292 296 293 294 294 302 304 303 306 305 305 304 304 304 301 298 298 299 300 301 300 299 296 296 294 294 295 296 296 296 297 298 300 304 309 314 317 317 320 320 322 322 323 329
297 301 296 296 299 301 303 306 307 307 306 306 305 303 302 300 301 300 300 300 298 299 295 294 293 293 293 295 296 297 298 298 300 306 309 310 314 319 320 322 324 323 323 324
298 299 297 296 299 301 303 305 306 306 307 305 304 303 302 302 301 300 299 298 298 296 295 293 292 292 293 294 295 296 298 299 299 304 305 307 308 312 311 307 308 312 316 305
297 296 293 297 300 301 300 305 305 305 304 304 303 302 302 302 301 300 298 297 298 296 295 293 292 292 292 293 294 296 298 297 298 299 302 303 307 309 310 308 308 293 293 292
Wind_Speed
1 9 3 4 5 9 9 10 13 14 11 13 14 18 16 12 8 7 10 13 14 16 18 18 17 17 19 18 18 16 17 18 18 13 13 13 14 13 16 14 18 19 17 17
9 5 4 4 6 6 7 12 14 11 5 17 15 21 11 3 3 7 10 12 14 17 18 18 17 17 18 20 19 18 18 18 18 13 13 12 13 14 16 15 16 18 20 19
9 6 1 5 4 7 7 12 12 18 19 21 9 12 9 8 4 4 7 10 14 17 20 18 19 17 17 19 20 19 20 20 20 19 12 10 12 11 13 14 15 18 21 21
4 4 7 7 5 6 11 7 13 17 15 9 8 6 7 8 6 2 9 12 16 18 19 19 18 17 17 18 20 21 20 21 19 19 15 17 13 12 12 15 14 13 18 20
6 6 6 7 3 5 10 14 16 16 14 11 6 8 2 15 6 3 9 13 17 19 19 20 19 18 17 17 18 21 22 22 17 17 18 14 15 12 12 12 13 16 16 20
5 2 4 4 5 6 10 14 14 6 8 8 5 7 9 1 3 5 7 11 15 20 22 20 19 17 16 17 18 19 23 20 19 18 20 19 19 15 13 15 13 13 11 13
3 7 3 3 9 7 9 11 4 5 8 6 6 11 11 2 5 3 9 13 18 21 21 21 20 18 16 17 17 19 22 20 16 22 19 20 20 18 20 16 15 17 15 14
4 8 9 5 4 6 4 7 3 6 6 13 17 9 5 4 5 3 9 15 21 21 20 21 20 18 17 16 17 20 20 19 18 17 18 18 21 13 13 15 11 14 14 14
5 4 5 3 2 6 7 4 6 6 14 8 8 7 12 8 8 4 12 18 21 20 21 23 21 17 19 18 16 17 19 20 15 12 15 17 16 19 17 13 13 11 12 13
2 6 4 6 6 5 7 5 4 5 7 8 7 14 7 8 7 11 16 22 20 21 22 21 20 19 18 18 17 16 16 19 15 11 10 12 14 15 13 12 14 16 15 16
1 3 6 6 9 4 8 8 4 4 7 6 9 3 3 6 5 13 17 20 21 21 21 19 20 19 21 19 18 17 16 18 17 9 10 10 12 12 14 16 9 10 14 17
6 6 7 7 4 8 10 10 7 4 3 8 8 14 3 6 5 9 14 17 19 19 20 20 21 20 20 20 19 18 15 17 16 15 9 9 10 12 12 12 18 29 17 17
8 6 5 5 5 5 9 9 9 9 8 15 9 8 8 10 14 18 15 18 17 18 19 20 20 20 20 19 19 18 16 16 16 15 14 9 7 11 11 11 23 15 19 15
7 9 11 9 9 7 10 13 12 13 9 16 21 28 23 20 22 18 18 20 18 17 19 20 19 17 20 18 18 18 19 16 16 15 14 13 9 6 11 13 11 13 12 14
8 11 15 17 20 19 20 21 19 20 23 19 26 28 24 21 17 16 17 19 19 19 20 21 19 16 20 19 18 17 17 18 16 16 15 13 13 7 8 10 11 12 14 14
12 11 11 17 16 20 23 22 22 22 22 24 25 26 21 13 17 16 16 18 18 19 21 20 20 21 21 19 17 18 17 16 16 16 16 13 12 10 9 7 6 7 13 13
12 9 7 9 6 11 19 17 18 14 13 13 17 16 15 18 17 16 17 18 14 19 21 18 20 19 19 19 18 18 19 17 16 15 15 13 13 11 9 9 6 4 9 11
12 12 4 9 11 9 3 1 6 10 13 15 16 17 15 15 15 16 17 8 15 19 20 16 17 17 17 17 18 18 18 17 17 16 15 12 13 11 9 9 8 7 5 8
17 11 5 5 7 17 14 9 4 4 9 12 12 10 12 11 13 14 3 11 16 17 18 14 14 16 17 17 16 16 16 16 16 16 14 13 11 11 9 8 6 5 5 6
14 15 8 4 5 6 3 6 5 3 7 6 4 9 9 10 8 10 14 17 16 17 15 13 15 15 15 16 17 16 16 15 16 15 15 12 10 11 9 6 7 6 5 5
7 8 13 9 7 11 8 11 7 4 4 2 8 10 8 10 9 15 17 15 16 16 14 16 15 13 14 16 16 16 15 14 14 14 15 12 10 10 10 7 8 8 8 4
13 11 6 7 7 12 6 13 7 3 4 5 8 8 9 10 12 13 14 16 15 16 14 15 13 14 15 15 14 16 15 14 14 13 12 10 9 8 7 4 8 7 6 5
9 9 7 11 8 3 17 7 13 5 9 9 8 6 6 10 12 11 14 14 14 14 11 13 13 15 14 14 15 15 15 15 14 13 9 8 6 7 4 7 10 6 7 7
11 13 7 7 12 16 10 15 15 11 11 9 5 5 7 11 11 12 12 12 12 11 11 12 13 14 15 15 15 15 15 14 13 7 7 5 5 2 4 3 2 4 6 7
6 12 12 14 15 11 11 13 11 11 7 7 5 5 8 9 10 11 11 11 11 10 10 11 12 13 16 16 16 15 14 14 12 10 8 7 4 4 5 5 2 3 2 3
10 11 10 7 8 8 6 3 3 6 7 6 5 6 5 7 9 10 10 9 9 9 8 11 12 13 15 16 16 16 13 13 12 9 7 6 4 3 2 3 3 7 4 7
Wind_Direction
148 265 231 20 330 305 296 285 291 291 326 302 296 293 301 304 298 352 334 339 332 329 330 330 331 329 322 319 313 305 294 282 272 219 219 201 204 199 209 204 198 187 196 190
223 247 106 322 306 273 276 290 298 303 267 315 299 296 289 79 32 355 350 352 343 335 333 331 326 331 328 324 317 312 302 287 275 224 206 203 198 203 212 205 196 194 191 192
281 82 297 301 259 281 293 296 312 308 316 282 299 262 144 150 237 326 347 350 352 346 337 332 326 325 327 323 319 317 311 296 284 223 207 203 196 205 211 207 197 199 195 194
268 137 292 274 238 297 295 4 305 302 313 314 345 289 253 141 285 283 338 346 342 337 333 331 326 324 326 324 323 326 317 301 280 222 205 211 200 191 195 212 203 195 202 199
90 283 274 240 354 315 300 318 299 292 281 294 192 248 189 209 227 309 333 342 341 338 335 331 331 321 329 326 327 324 323 316 280 230 201 202 212 205 195 203 200 205 197 205
305 317 251 345 286 284 299 289 281 270 257 248 221 275 291 328 317 277 332 339 339 335 329 330 331 322 334 326 327 331 323 327 329 277 207 201 208 207 213 195 194 206 198 198
178 192 153 273 290 174 298 324 321 269 206 264 145 266 265 96 186 309 329 330 333 333 326 329 331 330 329 336 332 330 325 330 340 333 227 212 211 205 214 208 200 194 199 189
285 188 191 157 307 324 331 326 3 289 298 308 302 252 77 73 156 284 328 331 329 331 327 326 329 329 333 337 334 317 324 326 338 341 334 237 211 211 212 220 212 205 204 192
300 193 151 240 206 262 117 249 15 292 255 263 234 230 214 156 227 268 323 318 332 325 324 322 326 332 331 329 328 325 324 320 332 342 334 335 218 210 207 207 198 220 211 181
120 278 177 147 261 190 270 48 209 202 283 294 278 295 286 197 268 332 318 331 330 322 322 322 323 332 328 327 324 324 323 318 323 328 333 335 314 245 214 225 224 208 191 198
209 236 146 217 204 236 178 203 225 286 270 283 306 305 65 330 335 324 317 331 325 327 321 317 327 327 330 327 325 321 323 317 316 332 328 329 328 318 238 206 218 258 200 196
205 213 256 264 337 265 252 257 237 230 214 249 284 278 29 152 290 313 334 316 329 326 323 328 321 328 331 327 326 320 320 316 314 321 325 323 331 325 315 202 185 237 210 195
163 214 281 188 175 188 224 221 238 242 271 256 276 269 158 226 287 334 332 316 321 329 329 334 325 327 327 327 323 322 320 315 310 314 318 316 329 324 323 292 201 199 217 184
183 225 229 263 307 321 251 246 242 227 244 267 255 271 282 304 325 329 320 320 322 326 333 324 328 322 329 326 324 323 319 316 309 309 310 306 320 313 293 304 295 193 200 193
230 253 253 252 261 269 270 266 262 245 241 243 273 281 299 306 315 316 318 316 324 317 330 321 332 319 323 323 320 317 313 311 308 303 301 301 308 307 293 295 288 224 211 194
212 261 270 276 273 266 267 261 257 259 261 259 261 269 274 327 315 321 314 316 314 324 319 325 327 323 319 321 315 314 309 307 305 296 290 295 293 299 288 267 257 294 204 202
207 238 277 267 276 284 276 267 242 254 257 270 270 286 328 305 308 319 312 304 316 315 317 330 325 322 322 318 314 309 312 306 297 292 288 289 289 295 300 305 298 274 255 189
218 227 201 278 308 247 81 195 283 267 260 266 267 277 293 302 320 308 295 327 314 319 315 332 323 318 317 314 309 309 309 305 296 289 281 279 287 285 301 304 294 314 265 228
224 212 239 247 254 289 295 204 211 202 280 278 265 276 296 320 310 295 86 331 325 312 320 337 317 318 316 312 309 308 303 302 294 286 276 265 262 278 283 277 299 336 280 236
205 222 207 197 242 256 18 148 139 149 271 164 259 294 299 297 284 295 339 325 313 318 325 336 320 318 315 313 311 307 302 300 293 280 274 266 267 279 266 285 299 325 320 274
173 188 218 220 240 265 263 147 180 251 35 237 294 290 287 262 270 300 304 318 314 326 341 333 323 319 315 312 313 312 309 304 304 296 280 265 251 255 281 306 308 322 313 262
180 177 187 208 229 258 145 145 213 335 273 296 297 287 276 273 291 305 313 304 326 326 350 331 326 322 320 319 318 312 317 314 305 292 268 260 266 261 262 248 250 246 254 278
207 204 182 199 207 210 180 201 219 274 291 305 288 292 270 278 292 301 301 322 330 328 349 328 325 322 327 325 324 319 328 318 312 287 249 238 243 251 304 318 303 317 328 297
227 206 228 193 232 234 211 233 254 260 274 287 264 264 271 281 304 310 321 324 326 342 348 328 328 329 329 332 328 325 331 328 316 342 31 29 41 174 112 232 286 272 248 267
217 177 222 243 257 252 242 239 260 262 264 247 235 259 272 291 298 319 321 325 326 343 355 330 332 332 329 331 332 336 342 340 346 358 22 25 46 72 104 90 17 267 281 328
199 206 215 249 238 232 269 155 206 220 222 224 242 253 263 291 310 322 322 332 326 338 351 335 334 334 331 332 333 340 343 354 349 357 9 11 15 27 72 95 140 93 71 26